Home   Weather   Karlsruhe   Past weeks
Flag for Germany

Past Weather in Karlsruhe, Baden-Württemberg, Germany — Yesterday and Last 2 Weeks

Now
50 °F

Clear.


Feels Like: 50 °F
Forecast: 60 / 32 °F
Wind: 2 mph from North

Location: Karlsruhe - Baden Wurttemberg

Current Time: Apr 3, 2020 at 10:01:32 pm

Latest Report: Apr 3, 2020 at 9:20 pm


Visibility: 10 mi

Pressure: 30.09 "Hg

Humidity: 58%

Dew Point: 36 °F

Location of KarlsruheLocation

Past Weather in Karlsruhe — Graph

°F

Karlsruhe Temperature Yesterday

Maximum temperature yesterday: 59 °F (at 5:50 pm)
Minimum temperature yesterday: 27 °F (at 5:20 am)
Average temperature yesterday: 42 °F

High & Low Weather Summary for the Past Weeks

 TemperatureHumidityPressure
High64 °F (Mar 20, 2:20 pm)100% (Mar 20, 5:50 am)30.45 "Hg (Mar 20, 5:50 am)
Low27 °F (Apr 1, 7:20 am)23% (Mar 23, 1:50 pm)29.83 "Hg (Apr 2, 6:20 pm)
Average43 °F57%30.17 "Hg
* Reported Mar 19 7:20 pm — Apr 3 8:20 pm, Karlsruhe. Weather by CustomWeather, © 2020

Note: Actual official high and low records may vary slightly from our data, if they occured in-between our weather recording intervals... More about our weather records

Karlsruhe Weather History for the Previous 24 Hours

Scroll right to see more
 ConditionsComfort  
Time TempWeatherWind HumidityBarometerVisibility
8:20 pm
Fri, Apr 3
52 °FClear.No wind50%30.09 "Hg10 mi
7:50 pm52 °FSunny.1 mph50%30.07 "Hg10 mi
7:20 pm54 °FSunny.2 mph47%30.07 "Hg10 mi
6:50 pm54 °FSunny.5 mph47%30.07 "Hg10 mi
6:20 pm54 °FPassing clouds.5 mph47%30.07 "HgN/A
5:20 pm55 °FPassing clouds.7 mph44%30.07 "HgN/A
4:50 pm54 °FPassing clouds.5 mph47%30.07 "HgN/A
4:20 pm54 °FPassing clouds.7 mph51%30.04 "HgN/A
3:50 pm54 °FOvercast.8 mph51%30.04 "HgN/A
3:20 pm55 °FPartly sunny.7 mph47%30.04 "HgN/A
2:50 pm54 °FScattered clouds.7 mph51%30.04 "HgN/A
2:20 pm54 °FPassing clouds.6 mph54%30.07 "HgN/A
1:50 pm52 °FPassing clouds.8 mph54%30.07 "HgN/A
1:20 pm52 °FPassing clouds.7 mph54%30.07 "HgN/A
12:50 pm50 °FPassing clouds.7 mph58%30.07 "HgN/A
12:20 pm50 °FPassing clouds.7 mph58%30.07 "HgN/A
11:50 am48 °FPartly sunny.9 mph62%30.07 "HgN/A
11:20 am48 °FPassing clouds.9 mph58%30.07 "HgN/A
10:50 am46 °FPassing clouds.9 mph62%30.07 "HgN/A
10:20 am46 °FSunny.12 mph62%30.04 "Hg10 mi
9:50 am45 °FSunny.10 mph61%30.04 "Hg10 mi
9:20 am45 °FSunny.8 mph66%30.04 "Hg10 mi
8:50 am43 °FSunny.6 mph66%30.04 "Hg10 mi
8:20 am36 °FSunny.5 mph81%30.01 "Hg10 mi
7:50 am34 °FSunny.5 mph81%30.01 "Hg10 mi
7:20 am34 °FSunny.5 mph87%30.01 "Hg10 mi
6:50 am30 °FPassing clouds.5 mph80%30.01 "HgN/A
6:20 am34 °FPassing clouds.5 mph81%30.01 "HgN/A
5:50 am36 °FPassing clouds.3 mph81%29.98 "HgN/A
5:20 am36 °FChilly.3 mph70%29.98 "HgN/A
4:50 am36 °FChilly.6 mph75%29.98 "HgN/A
4:20 am36 °FChilly.6 mph75%29.98 "HgN/A
3:50 am36 °FChilly.6 mph75%29.95 "HgN/A
3:20 am34 °FChilly.6 mph75%29.95 "HgN/A
2:50 am36 °FChilly.5 mph75%29.95 "HgN/A
1:20 am37 °FChilly.3 mph70%29.95 "HgN/A
12:50 am39 °FChilly.5 mph65%29.95 "HgN/A
12:20 am41 °FQuite cool.3 mph61%29.95 "HgN/A
11:50 pm
Thu, Apr 2
39 °FChilly.3 mph61%29.92 "HgN/A
11:20 pm41 °FQuite cool.3 mph57%29.92 "HgN/A
10:50 pm41 °FClear.5 mph57%29.92 "Hg10 mi
10:20 pm41 °FClear.5 mph57%29.89 "Hg10 mi
Weather by CustomWeather, © 2020

See weather overview

Advertising